Theta_e
321 317 319 321 324 322 322 324 325 326 326 323 324 322 326 335 337 342 344 340 337 340 329 330 329 327 332 340 341 342 342 341 340 338 336 336 330 324 323 322 322 323 323 323 321 319 318 320 323
317 318 321 322 323 323 326 326 326 326 325 334 338 329 336 332 344 345 344 341 341 340 330 329 329 326 325 339 340 341 340 338 336 329 331 327 323 322 321 321 322 322 321 321 320 319 318 320 323
317 318 323 323 322 323 326 325 326 326 325 337 336 339 340 342 345 344 344 341 342 341 334 330 329 325 322 327 332 335 332 328 327 324 322 323 324 322 320 321 321 321 320 320 320 318 318 319 322
319 319 320 323 323 322 326 326 326 327 326 333 334 334 337 341 343 344 343 343 342 341 339 329 327 325 323 323 322 322 322 323 324 324 323 323 323 321 319 320 321 320 319 319 318 318 318 319 319
319 322 324 323 323 323 323 324 326 327 327 334 334 333 337 340 344 341 340 342 341 342 339 330 328 327 325 325 325 326 326 326 327 326 325 323 322 320 318 319 321 319 319 318 318 318 319 319 319
321 322 324 324 323 322 323 325 326 326 325 333 335 335 336 340 345 345 340 340 341 341 331 330 330 329 328 328 328 328 329 329 329 328 326 325 322 319 318 318 319 319 318 318 318 319 319 319 319
323 324 324 325 324 323 324 326 327 326 327 329 335 335 339 341 345 347 345 339 340 334 330 330 331 332 332 331 331 331 331 331 330 330 327 326 322 320 319 318 318 318 319 319 319 319 320 320 320
322 324 324 324 324 324 325 326 326 326 327 331 335 332 336 337 344 347 347 345 342 335 332 333 332 332 333 333 333 333 333 333 331 331 329 326 324 321 319 319 319 319 320 319 320 320 321 322 322
321 323 325 324 324 324 324 327 325 325 326 330 334 336 334 340 340 346 347 345 344 342 341 340 338 334 333 333 334 334 334 334 333 332 330 327 326 322 320 320 320 320 323 322 321 320 320 320 320
322 325 325 324 324 324 324 326 325 326 327 327 333 336 337 342 344 345 345 345 344 342 341 342 342 338 334 337 334 334 335 334 334 333 330 329 336 329 328 321 321 322 324 325 325 324 323 321 330
322 324 325 324 323 322 324 324 325 326 327 327 331 334 338 342 343 344 344 344 342 340 338 333 341 340 336 340 336 336 339 338 337 336 330 337 336 331 329 328 322 322 323 327 326 327 331 333 330
324 323 323 324 323 324 325 324 324 324 327 325 325 324 336 341 343 343 343 343 342 340 336 330 336 335 331 338 333 334 341 340 340 339 336 337 336 334 334 334 334 335 331 336 336 337 337 334 330
324 324 323 323 323 323 323 324 324 324 325 325 324 323 332 339 341 343 343 343 343 341 339 332 332 328 327 327 330 330 339 330 331 335 326 330 337 336 335 334 334 334 335 335 337 338 337 336 334
323 323 323 323 323 323 323 324 324 324 323 325 324 324 327 331 336 340 343 343 344 343 339 335 333 329 328 325 325 326 325 325 328 325 324 325 330 331 334 333 333 333 333 335 336 338 338 338 337
323 324 324 323 323 324 323 325 325 324 324 324 325 325 325 327 330 336 341 342 343 343 340 331 334 330 328 326 325 324 325 324 324 322 323 324 324 324 325 331 332 332 334 335 333 336 337 339 339
324 325 326 325 325 323 323 326 326 324 324 324 324 325 325 325 327 330 337 340 341 342 340 334 331 331 328 327 326 326 325 325 323 321 322 323 322 323 323 327 328 332 334 336 338 338 338 339 339
325 326 326 325 324 324 324 325 325 324 324 324 325 325 325 325 326 327 331 336 339 342 343 338 332 330 328 328 328 327 326 326 325 324 328 321 321 322 322 323 329 332 336 337 336 335 335 336 335
325 325 325 326 325 323 324 325 325 324 324 324 324 325 325 325 325 326 328 332 337 341 344 344 338 334 331 330 330 333 331 327 331 333 332 321 321 322 322 328 335 336 338 337 335 335 337 337 337
324 325 325 325 324 323 325 325 326 325 325 324 324 324 324 324 324 325 324 328 331 338 343 345 340 339 336 335 337 338 335 332 332 327 321 321 322 328 326 334 335 334 338 337 335 337 336 335 335
324 325 325 324 323 323 324 325 325 325 325 324 324 324 324 324 324 324 324 323 326 332 340 344 344 343 339 337 337 340 339 336 334 329 321 322 331 333 334 335 335 335 337 335 333 334 334 334 334
324 325 324 324 324 323 324 325 325 325 325 324 324 324 324 324 324 323 324 324 322 329 335 340 343 342 339 339 339 341 338 336 334 329 322 325 336 336 336 336 334 335 334 334 334 335 336 336 336
325 323 323 323 324 326 324 326 324 324 324 324 325 324 324 324 324 324 324 323 324 322 326 336 341 343 343 341 341 339 337 334 332 330 327 332 336 336 337 337 336 336 335 336 336 336 335 336 335
322 321 322 323 324 324 323 324 324 323 323 324 324 323 323 323 323 324 324 324 324 322 322 332 338 342 344 342 339 340 339 338 336 334 328 334 337 338 339 338 337 336 335 336 336 336 334 332 329
320 320 320 322 322 325 323 323 325 324 325 325 324 323 322 323 323 323 324 324 324 325 322 331 338 341 343 342 340 341 341 340 339 336 330 335 338 339 337 338 336 335 333 333 331 328 322 320 321
320 322 330 330 327 327 323 323 326 325 325 325 324 323 322 322 323 323 323 323 324 327 328 330 336 340 342 342 341 342 341 342 338 337 334 337 338 336 336 335 334 332 330 326 319 314 314 312 311
324 325 329 330 330 328 324 326 328 326 325 324 323 322 322 322 322 323 323 323 325 329 334 337 337 339 341 341 341 341 341 341 338 338 337 336 336 336 334 333 331 327 321 316 314 312 308 304 303
323 327 325 325 325 327 327 326 325 324 324 324 324 322 321 322 322 324 323 323 324 329 334 337 337 338 340 337 338 338 340 339 338 339 337 337 335 334 332 329 326 319 313 310 307 304 303 303 303
322 322 324 322 332 331 328 328 328 326 326 324 324 323 322 322 323 323 323 324 326 330 332 337 337 338 333 335 337 336 339 338 339 339 337 336 335 330 327 322 315 310 307 304 303 303 303 303 302
323 324 323 322 326 329 328 327 326 326 325 326 325 323 322 322 322 323 324 325 329 330 333 332 334 332 333 335 336 337 339 339 340 339 335 333 329 325 319 311 307 304 304 303 303 303 302 302 301
321 323 322 327 328 327 328 331 325 325 324 324 324 323 323 322 323 323 325 324 326 328 331 330 332 332 334 337 341 341 340 340 339 336 333 330 325 317 309 305 304 303 303 303 303 302 301 301 301
Wind_Speed
6 6 4 4 6 6 5 5 2 5 4 3 3 7 9 4 5 2 5 14 25 29 33 29 26 24 25 27 27 25 23 21 19 18 16 15 12 12 11 10 10 9 9 7 7 7 7 8 9
8 6 4 5 7 9 7 6 5 2 3 3 5 8 8 9 2 3 11 15 25 28 34 31 27 25 25 26 25 24 23 21 19 18 16 14 12 11 11 11 10 9 8 7 7 7 7 8 8
9 7 8 4 6 10 6 6 1 5 3 8 5 5 1 2 3 7 6 20 27 27 32 32 28 26 25 25 24 24 22 21 20 18 16 14 12 11 10 11 10 9 8 7 7 7 6 7 7
6 5 5 8 9 3 1 4 3 4 3 11 3 4 2 4 4 5 13 23 27 28 28 31 29 27 26 25 24 23 22 20 19 17 16 14 12 11 10 11 11 9 8 7 7 7 6 5 5
7 5 7 10 9 2 5 2 4 4 3 9 7 4 3 6 8 13 17 23 27 27 27 32 29 28 26 25 23 22 20 19 17 17 15 14 12 11 11 10 10 8 7 7 7 6 6 5 4
9 5 8 11 10 6 6 3 3 1 6 6 6 4 5 11 13 16 18 24 25 27 31 32 30 28 26 24 23 21 19 18 17 16 14 13 12 11 11 10 9 8 7 6 5 4 4 3 3
14 8 11 9 5 9 7 5 4 4 6 9 3 5 6 14 13 17 20 23 24 29 33 34 32 29 27 25 23 21 20 19 17 16 14 13 12 11 10 9 8 7 6 6 4 4 2 1 1
11 6 11 10 9 8 12 7 4 2 4 2 6 5 6 16 17 17 20 21 23 27 34 35 33 32 30 26 24 23 21 20 18 17 16 14 12 11 9 8 8 7 6 6 5 3 2 2 2
9 7 11 13 10 7 9 8 4 4 7 4 6 1 4 18 20 19 20 21 22 24 28 30 32 33 31 29 27 24 22 20 19 19 17 15 14 13 11 10 9 9 8 7 5 3 2 2 3
13 11 13 4 9 6 10 9 2 5 9 8 9 5 8 16 20 22 21 23 24 27 29 29 29 31 32 28 30 27 25 23 22 21 20 17 15 13 12 12 12 11 10 8 6 4 3 3 2
13 15 11 8 10 11 10 10 7 10 12 9 10 10 12 16 19 20 20 21 24 26 30 34 29 29 32 28 30 28 24 24 23 22 22 17 16 16 14 13 14 13 11 7 6 5 2 5 4
12 17 15 10 11 12 12 11 13 16 14 7 2 5 12 16 20 21 20 20 24 28 31 33 32 33 34 28 32 30 23 25 22 22 22 19 17 16 14 12 11 11 10 10 7 6 6 3 3
19 18 13 19 14 15 15 15 15 22 20 15 9 7 12 16 18 18 19 20 23 26 29 33 34 35 35 34 31 30 25 30 29 26 25 23 18 16 15 13 12 11 11 9 8 8 5 3 2
12 23 16 15 18 18 17 17 16 20 23 20 13 12 15 16 17 18 22 23 25 24 27 33 38 37 37 34 33 33 33 30 30 28 26 24 20 18 16 14 13 12 10 10 10 9 7 6 5
20 14 14 16 16 12 12 19 23 30 12 16 22 16 17 16 17 21 22 24 26 26 25 30 35 38 38 37 35 35 33 32 30 28 26 24 23 20 18 15 14 12 11 12 12 10 9 8 7
16 18 19 19 19 15 13 19 20 24 22 24 23 23 20 20 20 19 20 23 25 26 29 29 32 37 38 38 35 34 33 31 29 27 26 26 23 21 20 17 15 13 13 11 11 11 10 7 7
17 19 22 19 13 12 19 18 17 23 17 22 23 26 26 22 21 21 22 23 25 28 29 32 33 35 38 37 36 32 30 29 28 25 24 25 24 22 21 18 15 15 14 13 12 10 10 8 8
21 20 21 19 14 15 18 22 13 10 14 18 20 22 26 29 28 24 22 23 24 27 28 29 34 35 36 33 32 28 28 29 25 23 23 25 24 23 22 17 16 15 14 13 13 12 10 10 9
20 24 21 20 19 10 20 22 19 23 20 17 17 20 21 22 27 28 23 23 25 27 30 32 35 37 38 37 32 30 32 30 28 27 28 25 24 23 23 19 19 18 15 14 14 13 13 13 10
24 25 22 14 8 13 19 24 20 20 24 28 27 28 26 25 27 27 27 25 30 30 32 32 35 35 39 38 35 27 25 25 25 27 28 27 25 22 22 21 19 19 16 18 19 18 16 17 19
30 30 24 20 16 18 16 26 30 24 33 35 34 34 34 32 29 30 31 27 31 32 34 36 37 39 41 37 34 26 21 22 24 27 30 29 26 24 23 24 23 21 21 21 22 20 19 20 19
29 28 23 22 19 20 19 21 31 30 29 30 37 39 41 40 38 38 38 37 34 42 39 36 36 37 39 38 34 35 33 32 31 31 30 30 29 27 26 26 25 23 23 23 23 21 19 17 15
29 19 21 20 22 20 24 14 35 22 26 29 28 33 39 40 43 42 42 42 39 42 44 39 37 37 37 41 41 37 31 25 22 30 33 32 30 28 27 25 22 20 18 15 19 15 11 12 7
25 12 18 16 14 18 30 20 37 25 30 26 24 33 38 38 38 38 37 36 34 32 41 39 37 38 38 38 41 37 37 26 32 35 36 35 32 28 26 22 18 18 17 18 16 14 10 8 6
23 21 6 8 10 21 18 20 33 5 11 19 23 35 39 38 37 37 37 33 31 30 33 39 38 38 38 37 38 37 36 32 31 34 36 34 33 28 23 21 20 19 18 16 14 12 10 9 9
22 19 10 12 13 20 18 17 32 21 29 34 37 19 21 27 33 36 37 37 31 28 30 33 37 37 36 41 37 37 35 40 29 31 34 30 29 24 23 22 21 19 17 15 13 11 11 11 11
23 14 24 4 3 4 15 27 23 18 16 15 20 29 33 35 31 30 31 32 33 30 32 36 35 35 38 42 41 38 40 35 32 36 31 27 25 26 24 23 22 19 16 15 13 11 10 9 9
11 20 9 4 9 9 18 25 17 6 17 19 22 21 28 26 23 21 23 26 29 28 28 30 32 35 40 42 41 41 41 37 33 31 31 29 27 26 26 24 21 19 16 13 11 9 8 9 10
9 8 7 9 6 10 15 18 16 12 12 20 18 19 28 30 30 20 16 19 21 20 23 28 35 39 40 39 36 35 35 35 34 34 32 29 26 28 26 24 20 17 15 12 9 8 9 10 11
23 14 10 7 10 15 13 21 11 12 10 7 11 17 17 18 17 15 12 14 17 19 22 29 36 39 37 33 35 35 36 38 37 36 31 27 30 29 26 23 19 16 14 11 10 10 11 11 11
Wind_Direction
196 191 194 214 231 239 198 152 9 205 196 194 164 201 215 343 183 34 132 169 166 166 172 174 171 167 166 167 170 174 173 174 176 169 168 166 165 158 154 152 147 143 140 134 126 124 119 117 115
182 190 214 240 250 215 146 128 200 296 302 221 199 213 235 216 89 108 145 169 164 165 171 173 172 168 168 169 175 178 178 179 176 169 166 170 168 161 158 155 151 149 146 140 135 131 127 122 119
173 187 239 240 244 243 148 168 284 322 246 186 187 220 142 101 133 158 181 163 162 165 168 174 171 168 169 173 178 179 180 178 173 168 168 171 170 165 164 159 160 159 153 151 144 137 135 131 127
171 198 228 245 218 189 139 123 353 304 155 188 203 188 144 181 147 161 156 162 163 164 169 173 172 169 167 169 173 173 174 174 173 170 170 172 173 169 168 169 168 162 157 159 155 150 148 142 141
179 223 234 236 235 164 226 309 327 300 172 195 228 186 145 161 141 142 151 160 165 167 172 174 175 174 173 172 173 174 174 176 176 174 176 175 173 172 172 172 171 162 164 169 163 154 152 151 148
195 250 233 225 198 196 219 240 305 289 191 161 206 197 145 164 156 154 153 162 168 171 178 178 179 181 181 180 179 178 180 181 181 183 184 181 177 176 172 169 168 166 169 174 165 156 156 155 159
246 226 248 272 226 197 191 171 221 314 209 190 213 214 144 171 167 163 162 167 172 183 182 183 183 185 187 186 185 186 187 186 189 192 191 189 188 182 177 171 166 171 173 173 173 158 149 153 190
240 254 243 240 229 198 171 191 209 306 140 212 206 220 169 183 170 163 164 170 177 187 186 186 186 187 189 190 193 195 193 192 196 198 196 195 195 191 184 175 171 174 181 181 179 166 162 206 218
208 237 237 230 230 215 177 205 184 276 253 220 198 213 133 168 172 162 163 167 175 180 184 186 188 190 192 193 195 198 199 199 200 201 201 200 198 195 191 188 182 179 183 188 192 189 193 226 248
215 232 248 215 215 255 190 230 232 240 218 229 212 196 158 168 174 175 177 176 179 181 185 188 187 191 194 193 199 200 201 203 205 204 204 199 192 191 184 196 190 187 188 196 207 219 223 242 228
214 242 242 217 225 213 234 249 246 240 235 220 211 196 184 180 186 188 190 191 186 185 190 194 189 192 194 193 198 199 199 202 203 203 207 193 196 202 192 196 198 196 196 200 214 232 236 222 210
239 230 243 230 213 218 231 266 259 243 237 171 250 239 205 202 196 197 198 196 189 191 195 197 197 199 199 198 203 202 198 201 198 202 203 198 197 201 193 193 194 196 206 201 199 219 215 226 259
229 244 229 236 230 236 250 243 251 252 235 235 262 241 210 212 209 207 205 203 197 197 199 203 202 205 205 204 209 208 200 215 210 205 212 204 197 199 198 198 196 200 202 207 204 207 209 218 243
218 236 232 232 232 241 245 240 237 254 233 234 231 233 215 219 218 214 206 205 204 202 206 208 207 206 207 206 212 212 213 218 214 218 218 212 205 207 200 205 202 206 205 209 205 211 220 227 231
238 239 223 230 231 231 237 244 227 243 231 232 225 223 219 219 221 220 214 210 207 206 205 211 209 208 208 210 215 217 217 220 217 219 217 214 212 214 210 206 205 206 209 211 216 221 226 230 243
222 232 243 227 221 223 213 250 235 237 233 229 231 228 223 220 223 224 222 217 211 206 209 210 208 210 211 213 215 218 220 221 223 219 217 214 214 216 214 211 211 207 211 218 219 223 227 235 251
211 228 225 234 202 211 213 250 241 246 222 227 223 225 225 224 225 228 225 223 215 209 206 211 212 211 213 215 216 219 220 221 222 217 213 216 217 219 221 218 215 212 206 209 217 224 234 246 256
213 222 240 220 195 214 219 244 236 184 217 228 223 218 224 227 228 230 227 223 221 215 209 209 215 215 214 213 216 217 218 220 217 213 211 216 216 219 219 215 207 205 205 210 220 226 239 243 252
241 227 228 219 220 230 237 249 228 243 236 235 228 230 220 225 232 232 229 227 223 219 211 210 212 216 214 213 212 214 216 213 213 216 219 218 217 218 214 206 205 209 213 221 234 234 243 258 255
231 236 230 227 182 232 256 254 251 238 246 244 236 238 240 240 239 236 232 230 230 220 217 213 213 212 217 216 214 212 211 212 213 215 217 216 213 210 203 203 212 221 223 230 240 246 250 255 264
223 225 231 234 211 239 266 272 260 248 242 243 242 246 246 239 237 238 238 230 239 222 216 214 213 213 218 214 211 205 202 205 207 212 215 213 207 206 208 212 220 227 234 243 249 251 253 255 258
224 222 239 239 234 242 219 263 257 253 252 240 234 238 242 238 234 237 236 238 232 235 229 219 213 210 212 208 205 208 206 210 215 212 208 206 207 212 216 222 229 238 241 245 250 249 251 255 246
236 233 217 229 234 251 241 250 261 252 249 247 246 239 237 238 232 232 232 233 232 234 233 220 211 209 207 209 211 208 203 206 206 206 209 207 209 214 221 223 223 234 246 247 236 221 230 239 226
223 221 222 215 230 241 235 234 270 249 247 248 242 242 239 237 235 235 233 231 228 226 228 214 207 207 205 205 207 207 211 198 210 211 207 206 211 211 219 220 233 233 227 228 230 233 218 212 214
205 199 163 188 211 232 223 220 242 169 235 253 252 244 241 243 240 237 233 227 220 214 217 211 204 203 203 204 204 206 212 202 208 208 204 205 203 213 211 214 223 214 211 216 218 220 232 243 255
187 187 176 198 207 233 215 230 238 243 254 253 252 246 244 235 235 235 232 225 219 212 208 204 201 199 200 207 204 206 205 207 201 207 207 216 217 206 206 216 216 205 204 209 216 228 243 256 263
199 203 216 346 358 269 219 237 257 251 258 240 244 242 240 246 235 231 230 229 225 219 209 204 199 197 201 210 208 207 205 205 193 206 208 197 205 205 206 198 195 197 204 213 225 236 248 259 271
187 194 188 183 177 215 231 242 249 236 228 239 244 236 234 236 245 234 230 226 218 212 209 202 201 200 210 207 206 203 201 202 205 206 202 198 201 198 189 189 193 200 205 212 222 235 251 265 274
167 186 190 172 227 225 250 249 239 247 241 244 250 243 243 241 244 236 220 207 203 201 200 202 202 204 207 205 205 201 202 200 196 199 194 195 193 185 188 191 195 200 207 213 228 246 259 267 274
203 191 189 186 186 233 262 267 263 232 236 227 237 246 256 246 227 224 212 202 198 201 195 207 206 210 209 202 196 194 193 191 192 191 194 196 187 188 190 194 198 205 210 221 232 246 260 269 266